NOAA 16 DEB, 41084

Orbit data source: Space-Track

NOAA 16 DEB, 41084 is space debris in SSO originally from a launch on Thu, 21 Sep 2000 UTC launched from the Air Force Western Test Range (AFWTR). Debris objects in space refer to the collection of defunct objects orbiting the Earth. Examples of debris include non-operational satellites, rocket bodies, and fragments generated from explosions, collisions, or faulty payload assembly.

Loading next visibility...
Identifier
41084, 2000-055AT
Orbit
SSO
Country
Flag of USUS
Related business
Manufacturer
Unknown
Mission
Spacecraft
Bus & Motor
Unknown
Mass
Unknown
Launch date (UTC)
2000-09-21 (25 years ago)
Launch vehicle
Unknown
Launch site
Air Force Western Test Range (AFWTR)
Object type
Payload
Rocket body
Debris
Shape & HBR
Unknown
Radar Cross Section
Small (<0.1 m²)

Expand to show TLE details & history
Last TLE update: 15 hours ago

TLE from 15 hours ago
0 NOAA 16 DEB
1 41084U 00055AT  25258.21323146  .00001506  00000-0  69136-3 0  9991
2 41084  98.7074 343.0125 0014718 298.0331  61.9358 14.22693068507059
Epoch: 2025-09-15T05:07Z
TLE epoch observation values (Epoch: 2025-09-15T05:07:03.198Z)
Latitude
Longitude
-88.17194°
Altitude
814.207 km
Speed
7.449 km/s
True Right ascension
22h 52m 02s
True Declination
0° 00' 00"
Sunlit
Object was in full shadow at epoch
Visualization orbit readout
Latitude
Unknown
Longitude
Unknown
Altitude
Unknown
Speed
Unknown
Apparent Right ascension
Unknown
Apparent Declination
Unknown
Sunlit
N/A
Visualization observer readout
Local Sidereal Time
12:29:40
Azimuth
Unknown
Elevation
Unknown
Doppler factor
Unknown
Orbital elements
Apogee altitude
823.999 km
Perigee altitude
802.83 km
Semi-major axis
7,191.551 km
Eccentricity
0.00147
Inclination
98.7074°
RAAN
343.0125°
Arg. of periapsis
298.0331°
True anomaly
62.08475°
Mean anomaly
61.9358°
Eccentric anomaly
62.01026°
Mean motion
3.55885 °/min
Orbital period
101.16 mins
BSTAR
0.00069136
Loading maneuver chart data...
Computing Atmospheric mass density...
Loading historical data...
Loading historical data...
Loading historical data...
Loading historical data...
Loading historical data...
Loading historical data...
Loading historical data...

Documentation

Showing up to 5 results
|